EN

Hourly Weather Aluferovo

Today, 26 January, Tuesday

Time Temperature Precipitation Wind Pressure Humidity
00:00 -3°C° 0 mm 4 mps 750 mmHg 94%
01:00 -3°C° 0 mm 4 mps 750 mmHg 94%
02:00 -3°C° 0 mm 4 mps 750 mmHg 94%
03:00 -3°C° 0 mm 4 mps 749 mmHg 95%
04:00 -3°C° 0 mm 4 mps 749 mmHg 94%
05:00 -2°C° 0 mm 4 mps 749 mmHg 94%
06:00 -2°C° 0 mm 5 mps 748 mmHg 94%
07:00 -2°C° 0 mm 5 mps 748 mmHg 93%
08:00 -2°C° 0 mm 5 mps 748 mmHg 92%
09:00 -2°C° 0 mm 5 mps 747 mmHg 91%
10:00 -2°C° 0 mm 5 mps 747 mmHg 92%
11:00 -2°C° 0 mm 6 mps 747 mmHg 92%
12:00 -2°C° 0 mm 6 mps 747 mmHg 92%
13:00 -2°C° 0.1 mm 6 mps 746 mmHg 93%
14:00 -2°C° 0.1 mm 6 mps 745 mmHg 95%
15:00 -2°C° 0.1 mm 6 mps 745 mmHg 96%
16:00 -2°C° 0.2 mm 6 mps 745 mmHg 96%
17:00 -2°C° 0.2 mm 6 mps 745 mmHg 97%
18:00 -2°C° 0.2 mm 6 mps 745 mmHg 97%
19:00 -2°C° 0.2 mm 6 mps 745 mmHg 94%
20:00 -1°C° 0.2 mm 5 mps 745 mmHg 90%
21:00 -1°C° 0.2 mm 5 mps 745 mmHg 87%
22:00 -1°C° 0.1 mm 5 mps 745 mmHg 90%
23:00 -3°C° 0.1 mm 6 mps 746 mmHg 92%

Tomorrow, 27 January, Wednesday

Time Temperature Precipitation Wind Pressure Humidity
00:00 -3°C° 0.1 mm 6 mps 746 mmHg 95%
01:00 -3°C° 0.9 mm 6 mps 745 mmHg 96%
02:00 -3°C° 0.9 mm 6 mps 745 mmHg 97%
03:00 -2°C° 0.9 mm 5 mps 745 mmHg 97%
04:00 -2°C° 0.7 mm 5 mps 744 mmHg 97%
05:00 -1°C° 0.7 mm 5 mps 744 mmHg 97%
06:00 -1°C° 0.7 mm 5 mps 743 mmHg 97%
07:00 -1°C° 0 mm 5 mps 743 mmHg 94%
08:00 -1°C° 0 mm 5 mps 743 mmHg 91%
09:00 -1°C° 0 mm 5 mps 743 mmHg 87%
10:00 -1°C° 0 mm 5 mps 744 mmHg 86%
11:00 -2°C° 0 mm 5 mps 744 mmHg 85%
12:00 -2°C° 0 mm 5 mps 745 mmHg 83%
13:00 -2°C° 0 mm 5 mps 745 mmHg 84%
14:00 -2°C° 0 mm 5 mps 745 mmHg 84%
15:00 -2°C° 0 mm 4 mps 745 mmHg 85%
16:00 -3°C° 0 mm 4 mps 745 mmHg 87%
17:00 -2°C° 0 mm 3 mps 745 mmHg 88%
18:00 -2°C° 0 mm 3 mps 746 mmHg 90%
19:00 -3°C° 0 mm 2 mps 746 mmHg 91%
20:00 -3°C° 0 mm 2 mps 746 mmHg 92%
21:00 -4°C° 0 mm 2 mps 746 mmHg 94%
22:00 -2°C° 0 mm 1 mps 746 mmHg 93%
23:00 -2°C° 0 mm 1 mps 747 mmHg 93%

Day after tomorrow, 28 January, Thursday

Time Temperature Precipitation Wind Pressure Humidity
00:00 -2°C° 0 mm 1 mps 747 mmHg 93%
01:00 -2°C° 0 mm 1 mps 747 mmHg 92%
02:00 -2°C° 0 mm 1 mps 747 mmHg 92%
03:00 -3°C° 0 mm 0 mps 747 mmHg 92%
04:00 -1°C° 0 mm 1 mps 747 mmHg 92%
05:00 -1°C° 0 mm 1 mps 747 mmHg 93%
06:00 0°C° 0 mm 1 mps 747 mmHg 94%
07:00 0°C° 0 mm 1 mps 747 mmHg 95%
08:00 -2°C° 0 mm 2 mps 747 mmHg 96%
09:00 -2°C° 0 mm 2 mps 747 mmHg 97%
10:00 -1°C° 0.1 mm 2 mps 746 mmHg 98%
11:00 -1°C° 0.1 mm 2 mps 746 mmHg 98%
12:00 +1°C° 0.1 mm 2 mps 746 mmHg 98%
13:00 +1°C° 0.1 mm 2 mps 746 mmHg 98%
14:00 0°C° 0.1 mm 3 mps 746 mmHg 98%
15:00 0°C° 0.1 mm 3 mps 745 mmHg 97%
16:00 -1°C° 0.2 mm 3 mps 745 mmHg 97%
17:00 -1°C° 0.2 mm 3 mps 745 mmHg 96%
18:00 -1°C° 0.2 mm 3 mps 745 mmHg 96%
19:00 -1°C° 0.6 mm 3 mps 745 mmHg 96%
20:00 -1°C° 0.6 mm 3 mps 745 mmHg 95%
21:00 -1°C° 0.6 mm 3 mps 745 mmHg 95%
22:00 -1°C° 0 mm 3 mps 745 mmHg 95%
23:00 -2°C° 0 mm 3 mps 745 mmHg 94%

29 January, Friday

Time Temperature Precipitation Wind Pressure Humidity
00:00 -2°C° 0 mm 3 mps 745 mmHg 94%
01:00 -2°C° 0 mm 3 mps 744 mmHg 94%
02:00 -2°C° 0 mm 3 mps 744 mmHg 95%
03:00 -2°C° 0 mm 3 mps 744 mmHg 96%
04:00 -2°C° 0.1 mm 3 mps 743 mmHg 95%
05:00 -2°C° 0.1 mm 3 mps 743 mmHg 95%
06:00 -2°C° 0.1 mm 3 mps 742 mmHg 95%
07:00 -2°C° 0.4 mm 3 mps 742 mmHg 95%
08:00 -2°C° 0.4 mm 3 mps 741 mmHg 96%
09:00 -2°C° 0.4 mm 3 mps 741 mmHg 97%
10:00 -2°C° 0.7 mm 3 mps 741 mmHg 96%
11:00 -2°C° 0.7 mm 3 mps 740 mmHg 96%
12:00 -2°C° 0.7 mm 3 mps 740 mmHg 96%
13:00 -2°C° 1.3 mm 3 mps 739 mmHg 96%
14:00 -2°C° 1.3 mm 3 mps 739 mmHg 96%
15:00 -2°C° 1.3 mm 3 mps 738 mmHg 97%
16:00 -4°C° 0.9 mm 3 mps 738 mmHg 97%
17:00 -4°C° 0.9 mm 3 mps 738 mmHg 97%
18:00 -4°C° 0.9 mm 3 mps 737 mmHg 97%
19:00 -4°C° 0.4 mm 3 mps 737 mmHg 97%
20:00 -4°C° 0.4 mm 3 mps 736 mmHg 97%
21:00 -4°C° 0.4 mm 3 mps 736 mmHg 97%
22:00 -4°C° 0.1 mm 3 mps 736 mmHg 96%
23:00 -2°C° 0.1 mm 3 mps 735 mmHg 95%

30 January, Saturday

Time Temperature Precipitation Wind Pressure Humidity
00:00 -2°C° 0.1 mm 3 mps 735 mmHg 94%
01:00 -4°C° 0.1 mm 3 mps 735 mmHg 94%
02:00 -4°C° 0.1 mm 4 mps 735 mmHg 94%
03:00 -4°C° 0.1 mm 4 mps 735 mmHg 94%
04:00 -5°C° 0 mm 4 mps 734 mmHg 93%
05:00 -6°C° 0 mm 3 mps 734 mmHg 92%
06:00 -7°C° 0 mm 3 mps 734 mmHg 91%
07:00 -8°C° 0 mm 3 mps 734 mmHg 92%
08:00 -9°C° 0 mm 3 mps 734 mmHg 92%
09:00 -10°C° 0 mm 3 mps 734 mmHg 92%
10:00 -9°C° 0 mm 3 mps 734 mmHg 92%
11:00 -7°C° 0 mm 3 mps 735 mmHg 92%
12:00 -7°C° 0 mm 4 mps 735 mmHg 91%
13:00 -7°C° 0.1 mm 4 mps 735 mmHg 91%
14:00 -5°C° 0.1 mm 4 mps 735 mmHg 90%
15:00 -5°C° 0.1 mm 4 mps 735 mmHg 90%
16:00 -7°C° 0 mm 4 mps 735 mmHg 90%
17:00 -7°C° 0 mm 4 mps 736 mmHg 91%
18:00 -8°C° 0 mm 4 mps 736 mmHg 92%
19:00 -8°C° 0 mm 4 mps 736 mmHg 92%
20:00 -9°C° 0 mm 4 mps 737 mmHg 92%
21:00 -8°C° 0 mm 3 mps 737 mmHg 92%
22:00 -9°C° 0 mm 3 mps 737 mmHg 93%
23:00 -10°C° 0 mm 3 mps 737 mmHg 93%

31 January, Sunday

Time Temperature Precipitation Wind Pressure Humidity
00:00 -10°C° 0 mm 3 mps 737 mmHg 93%
01:00 -10°C° 0 mm 3 mps 738 mmHg 94%
02:00 -10°C° 0 mm 3 mps 738 mmHg 94%
03:00 -12°C° 0 mm 3 mps 738 mmHg 94%
04:00 -12°C° 0 mm 3 mps 738 mmHg 94%
05:00 -10°C° 0 mm 2 mps 737 mmHg 94%
06:00 -10°C° 0 mm 2 mps 737 mmHg 95%
07:00 -9°C° 0 mm 2 mps 737 mmHg 95%
08:00 -10°C° 0 mm 3 mps 738 mmHg 95%
09:00 -10°C° 0 mm 3 mps 738 mmHg 94%
10:00 -9°C° 0 mm 3 mps 738 mmHg 94%
11:00 -8°C° 0 mm 3 mps 738 mmHg 93%
12:00 -7°C° 0 mm 3 mps 739 mmHg 92%
13:00 -7°C° 0 mm 3 mps 739 mmHg 92%
14:00 -7°C° 0 mm 3 mps 739 mmHg 91%
15:00 -7°C° 0 mm 3 mps 739 mmHg 90%
16:00 -8°C° 0 mm 3 mps 739 mmHg 91%
17:00 -8°C° 0 mm 3 mps 740 mmHg 92%
18:00 -9°C° 0 mm 3 mps 740 mmHg 92%
19:00 -9°C° 0 mm 3 mps 740 mmHg 93%
20:00 -10°C° 0 mm 3 mps 740 mmHg 93%
21:00 -10°C° 0 mm 3 mps 740 mmHg 94%
22:00 -10°C° 0 mm 3 mps 740 mmHg 94%
23:00 -10°C° 0 mm 3 mps 740 mmHg 94%
Show more